Weather History for Morristown, NJ

Change the Weather History Date:

Sunday, September 15, 2013

  Actual Average Record
Temperature  
Mean Temperature 55 °F -  
Max Temperature 69 °F 77 °F 89 °F (1947)
Min Temperature 41 °F 54 °F 35 °F (1963)
Degree Days  
Heating Degree Days 10    
Growing Degree Days 5 (Base 50)    
Moisture  
Dew Point 44 °F    
Average Humidity 81    
Maximum Humidity 94    
Minimum Humidity 35    
Precipitation  
Precipitation 0.00 in - - ()
Sea Level Pressure  
Sea Level Pressure 30.16 in    
Wind  
Wind Speed 0 mph (West)    
Max Wind Speed 7 mph    
Max Gust Speed -    
Visibility 9 miles    
Events      
Averages and records for this station are not official NWS values.
T = Trace of Precipitation, MM = Missing Value Source: NWS Daily Summary

Daily Weather History Graph

Daily Weather History Graph

Search for Another Location

Airport:

Trip Planner

Search our weather history database for the weather conditions in past years. The results will help you decide how hot, cold, wet, or windy it might be!

Date:

Astronomy

Sep. 15, 2013 Rise Set
Actual Time 6:38 AM EDT 7:06 PM EDT
Civil Twilight 6:10 AM EDT 7:33 PM EDT
Nautical Twilight 5:38 AM EDT 8:06 PM EDT
Astronomical Twilight 5:05 AM EDT 8:39 PM EDT
Moon 4:33 PM EDT (9/15) 2:12 AM EDT (9/15)
Length of Visible Light 13h 22m
Length of Day
12h 27m
Waxing Gibbous, 82% of the Moon is Illuminated
Sep 15
Waxing Gibbous
Sep 19
Full
Sep 26
Last Quarter
Oct 4
New
Oct 11
First Quarter

Hourly Weather History & Observations

Time (EDT) Temp. Dew Point Humidity Pressure Visibility Wind Dir Wind Speed Gust Speed Precip Events Conditions
12:15 AM 46.4 °F 44.6 °F 93% 30.15 in 10.0 mi Calm Calm - N/A   Clear
12:35 AM 46.4 °F 44.6 °F 93% 30.14 in 10.0 mi Calm Calm - N/A   Clear
12:55 AM 46.4 °F 42.8 °F 87% 30.15 in 10.0 mi Calm Calm - N/A   Clear
1:15 AM 46.4 °F 42.8 °F 87% 30.15 in 10.0 mi Calm Calm - N/A   Clear
1:35 AM 44.6 °F 42.8 °F 93% 30.15 in 10.0 mi Calm Calm - N/A   Clear
1:55 AM 44.6 °F 42.8 °F 93% 30.16 in 10.0 mi Calm Calm - N/A   Clear
2:15 AM 44.6 °F 41.0 °F 87% 30.15 in 10.0 mi Calm Calm - N/A   Clear
2:35 AM 44.6 °F 41.0 °F 87% 30.16 in 10.0 mi Calm Calm - N/A   Clear
2:55 AM 42.8 °F 41.0 °F 93% 30.15 in 7.0 mi Calm Calm - N/A   Clear
3:15 AM 42.8 °F 41.0 °F 93% 30.16 in 10.0 mi Calm Calm - N/A   Clear
3:35 AM 42.8 °F 41.0 °F 93% 30.16 in 1.8 mi Calm Calm - N/A   Mist
3:55 AM 42.8 °F 41.0 °F 93% 30.17 in 3.0 mi Calm Calm - N/A   Clear
4:15 AM 42.8 °F 41.0 °F 93% 30.17 in 10.0 mi Calm Calm - N/A   Clear
4:35 AM 42.8 °F 41.0 °F 93% 30.17 in 7.0 mi Calm Calm - N/A   Clear
4:55 AM 42.8 °F 39.2 °F 87% 30.18 in 0.8 mi Calm Calm - N/A   Mostly Cloudy
5:15 AM 42.8 °F 41.0 °F 93% 30.18 in 10.0 mi Calm Calm - N/A   Scattered Clouds
5:35 AM 42.8 °F 39.2 °F 87% 30.18 in 7.0 mi Calm Calm - N/A   Clear
5:55 AM 42.8 °F 41.0 °F 93% 30.19 in 10.0 mi Calm Calm - N/A   Clear
6:15 AM 42.8 °F 39.2 °F 87% 30.19 in 10.0 mi Calm Calm - N/A   Clear
6:35 AM 41.0 °F 39.2 °F 93% 30.19 in 4.0 mi Calm Calm - N/A   Clear
6:45 AM 41.0 °F 39.2 °F 93% 30.20 in 10.0 mi Calm Calm - N/A   Scattered Clouds
7:45 AM 44.6 °F 42.8 °F 93% 30.21 in 10.0 mi Calm Calm - N/A   Partly Cloudy
8:45 AM 51.8 °F 46.4 °F 82% 30.22 in 10.0 mi Calm Calm - N/A   Partly Cloudy
9:45 AM 57.2 °F 48.2 °F 72% 30.23 in 10.0 mi Calm Calm - N/A   Scattered Clouds
10:45 AM 62.6 °F 44.6 °F 52% 30.22 in 10.0 mi Calm Calm - N/A   Mostly Cloudy
11:45 AM 64.4 °F 46.4 °F 52% 30.21 in 10.0 mi NNE 5.8 mph - N/A   Mostly Cloudy
12:45 PM 66.2 °F 42.8 °F 43% 30.19 in 10.0 mi Calm Calm - N/A   Scattered Clouds
1:45 PM 68.0 °F 39.2 °F 35% 30.17 in 10.0 mi Calm Calm - N/A   Mostly Cloudy
2:45 PM 69.8 °F 42.8 °F 38% 30.15 in 10.0 mi WNW 4.6 mph - N/A   Mostly Cloudy
3:45 PM 69.8 °F 42.8 °F 38% 30.12 in 10.0 mi SW 6.9 mph - N/A   Mostly Cloudy
5:45 PM 68.0 °F 46.4 °F 46% 30.11 in 10.0 mi WSW 4.6 mph - N/A   Mostly Cloudy
6:45 PM 60.8 °F 53.6 °F 77% 30.10 in 10.0 mi Calm Calm - N/A   Mostly Cloudy
7:45 PM 57.2 °F 51.8 °F 82% 30.10 in 10.0 mi Calm Calm - N/A   Mostly Cloudy
8:45 PM 53.6 °F 51.8 °F 94% 30.10 in 10.0 mi Calm Calm - N/A   Clear
9:45 PM 53.6 °F 51.8 °F 94% 30.12 in 10.0 mi Calm Calm - N/A   Clear
10:55 PM 53.6 °F 51.8 °F 94% 30.11 in 10.0 mi Calm Calm - N/A   Clear
11:15 PM 55.4 °F 51.8 °F 88% 30.11 in 10.0 mi Calm Calm - N/A   Clear
11:35 PM 55.4 °F 51.8 °F 88% 30.11 in 10.0 mi Calm Calm - N/A   Clear
11:55 PM 55.4 °F 51.8 °F 88% 30.10 in 10.0 mi Calm Calm - N/A   Clear